Starlink 30790

operational
NORAD ID: 58127 Int'l Des: 2023-162 Owner: SPXS Country: US Constellation: starlink
LEOCIRCULAR

About Starlink 30790

Description loading...

Live Position

Loading 3D Globe...

Upcoming Passes

Altitude History

Altitude vs Time

uPlot chart will show altitude changes over time

Two-Line Element Set

1 58127U 23162K 25350.89810020 .00024048 00000-0 16471-2 0 9999
2 58127 43.0011 222.3106 0004221 229.9674 130.0800 15.05635147119851
Epoch: Dec 16, 2025 • Age: 9 hours

Current Status

Altitude 555.1 km
Velocity 7.58 km/s
Sub-Earth Point -23.00°S, 2.79°E
Launch Date Oct 22, 2023
Age 2.1 years
Type internet

Technical Details

Classification Payload
Mass 730.00 kg
Dry Mass 700.00 kg
Total Mass 730.00 kg
Length 0.30 m
Diameter 4.10 m
Span 29.00 m
Shape Box + pan
Manufacturer SPXS
Bus Type Starlink V2M
Phase Status In Orbit
Owner/State SPXS/US

Large Constellations

Loading constellations...